Weather History for KMEH - November, 2013

Change the Weather History Date:

Wednesday, November 20, 2013

  Actual Average Record
Temperature  
Mean Temperature 20 °F -  
Max Temperature 32 °F 40 °F 57 °F (2002)
Min Temperature 8 °F 24 °F 8 °F (2013)
Degree Days  
Heating Degree Days 45    
Moisture  
Dew Point 19 °F    
Average Humidity 77    
Maximum Humidity 88    
Minimum Humidity 53    
Precipitation  
Precipitation 0.02 in - - ()
Sea Level Pressure  
Sea Level Pressure 30.09 in    
Wind  
Wind Speed 3 mph (NW)    
Max Wind Speed 6 mph    
Max Gust Speed -    
Visibility 10 miles    
Events Snow    
Averages and records for this station are not official NWS values.
T = Trace of Precipitation, MM = Missing Value Source: NWS Daily Summary

Daily Weather History Graph

Daily Weather History Graph

Search for Another Location

Airport or City:

Trip Planner

Search our weather history database for the weather conditions in past years. The results will help you decide how hot, cold, wet, or windy it might be!

Date:

Astronomy

Nov. 20, 2013 Rise Set
Actual Time 7:00 AM PST 4:18 PM PST
Civil Twilight 6:27 AM PST 4:51 PM PST
Nautical Twilight 5:51 AM PST 5:27 PM PST
Astronomical Twilight 5:15 AM PST 6:02 PM PST
Moon 7:05 PM PST (11/20) 9:28 AM PST (11/20)
Length of Visible Light 10h 23m
Length of Day
9h 18m
Waning Gibbous, 91% of the Moon is Illuminated
Nov 20
Waning Gibbous
Nov 25
Last Quarter
Dec 2
New
Dec 9
First Quarter
Dec 17
Full

Hourly Weather History & Observations

Time (PST) Temp. Windchill Dew Point Humidity Pressure Visibility Wind Dir Wind Speed Gust Speed Precip Events Conditions
12:32 AM 32.0 °F 27.5 °F 28.9 °F 88% 29.83 in 1.8 mi Variable 4.6 mph - 0.01 in Snow Light Snow
12:49 AM 32.0 °F 28.7 °F 28.9 °F 88% 29.82 in 2.0 mi Variable 3.5 mph - 0.02 in Snow Light Snow
12:56 AM 32.0 °F 28.7 °F 28.0 °F 85% 29.87 in 5.0 mi Variable 3.5 mph - 0.02 in Snow Light Snow
1:08 AM 32.0 °F 28.7 °F 28.0 °F 85% 29.84 in 10.0 mi Variable 3.5 mph - 0.00 in   Overcast
1:56 AM 30.9 °F 27.5 °F 27.0 °F 85% 29.90 in 10.0 mi Variable 3.5 mph - 0.00 in   Overcast
2:56 AM 30.9 °F - 27.0 °F 85% 29.92 in 10.0 mi North - - N/A   Overcast
3:16 AM 30.0 °F 25.2 °F 27.0 °F 88% 29.89 in 10.0 mi Variable 4.6 mph - N/A   Overcast
3:40 AM 30.0 °F 25.2 °F 27.0 °F 88% 29.90 in 10.0 mi Variable 4.6 mph - N/A   Overcast
3:48 AM 30.0 °F 26.5 °F 26.1 °F 85% 29.90 in 10.0 mi Variable 3.5 mph - N/A   Overcast
3:56 AM 30.0 °F 26.5 °F 26.1 °F 85% 29.96 in 10.0 mi Variable 3.5 mph - N/A   Overcast
4:03 AM 30.0 °F 24.1 °F 26.1 °F 85% 29.91 in 10.0 mi Variable 5.8 mph - N/A   Overcast
4:13 AM 30.0 °F 25.2 °F 25.0 °F 82% 29.92 in 10.0 mi Variable 4.6 mph - N/A   Overcast
4:27 AM 28.9 °F 25.2 °F 25.0 °F 85% 29.93 in 10.0 mi Variable 3.5 mph - N/A   Overcast
4:56 AM 28.9 °F 25.2 °F 24.1 °F 82% 30.00 in 10.0 mi Variable 3.5 mph - N/A   Overcast
5:12 AM 28.0 °F 24.2 °F 23.0 °F 81% 29.96 in 10.0 mi NW 3.5 mph - N/A   Overcast
5:28 AM 28.0 °F 24.2 °F 23.0 °F 81% 29.97 in 10.0 mi Variable 3.5 mph - N/A   Overcast
5:56 AM 28.0 °F - 21.9 °F 78% 30.04 in 10.0 mi Calm Calm - N/A   Overcast
6:56 AM 27.0 °F - 21.9 °F 81% 30.07 in 10.0 mi Calm Calm - N/A   Overcast
7:56 AM 27.0 °F - 19.9 °F 75% 30.11 in 10.0 mi Calm Calm - N/A   Overcast
8:56 AM 27.0 °F 23.0 °F 19.9 °F 75% 30.15 in 10.0 mi Variable 3.5 mph - N/A   Scattered Clouds
9:56 AM 28.0 °F 24.2 °F 21.0 °F 75% 30.17 in 10.0 mi Variable 3.5 mph - N/A   Clear
10:38 AM 28.0 °F 22.8 °F 21.0 °F 75% 30.10 in 10.0 mi Variable 4.6 mph - N/A   Mostly Cloudy
10:56 AM 28.0 °F 22.8 °F 19.0 °F 69% 30.18 in 10.0 mi Variable 4.6 mph - N/A   Mostly Cloudy
11:07 AM 28.0 °F - 19.9 °F 72% 30.10 in 10.0 mi Calm Calm - N/A   Partly Cloudy
11:56 AM 28.0 °F 22.8 °F 18.0 °F 66% 30.17 in 10.0 mi Variable 4.6 mph - N/A   Partly Cloudy
12:15 PM 28.0 °F - 18.0 °F 66% 30.10 in 10.0 mi Calm Calm - N/A   Mostly Cloudy
12:56 PM 27.0 °F 20.5 °F 17.1 °F 66% 30.19 in 10.0 mi WNW 5.8 mph - N/A   Mostly Cloudy
1:15 PM 27.0 °F 21.6 °F 16.0 °F 63% 30.11 in 10.0 mi Variable 4.6 mph - N/A   Scattered Clouds
1:56 PM 26.1 °F 21.9 °F 10.9 °F 53% 30.19 in 10.0 mi Variable 3.5 mph - N/A   Clear
2:56 PM 25.0 °F 20.7 °F 10.9 °F 55% 30.23 in 10.0 mi Variable 3.5 mph - N/A   Clear
3:56 PM 23.0 °F - 10.9 °F 60% 30.25 in 10.0 mi Calm Calm - N/A   Clear
4:56 PM 19.0 °F - 10.9 °F 71% 30.29 in 10.0 mi Calm Calm - N/A   Clear
5:56 PM 17.1 °F - 10.0 °F 74% 30.32 in 10.0 mi Calm Calm - N/A   Clear
6:56 PM 14.0 °F - 10.0 °F 84% 30.34 in 10.0 mi Calm Calm - N/A   Clear
7:56 PM 12.0 °F - 8.1 °F 84% 30.37 in 10.0 mi Calm Calm - N/A   Clear
8:56 PM 10.9 °F - 6.1 °F 81% 30.39 in 10.0 mi Calm Calm - N/A   Clear
9:56 PM 10.0 °F - 5.0 °F 80% 30.40 in 10.0 mi Calm Calm - N/A   Clear
10:56 PM 8.1 °F - 3.0 °F 80% 30.41 in 10.0 mi Calm Calm - N/A   Clear
11:56 PM 8.1 °F - 1.9 °F 76% 30.43 in 10.0 mi Calm Calm - N/A   Clear